Weather Roundup
Issued by NWS

Home | Current Version | Previous Version | Graphics & Text | Print | Product List | Glossary Off
Versions: 1 2 3 4 5 6 7 8 9 10 11 12 13 14 15 16 17 18 19 20 21 22 23 24 25 26 27 28 29 30 31 32 33 34 35 36 37 38 39 40 41 42 43 44 45 46 47 48 49 50

000
NZUS93 KARX 261559
HRRWXR

CURRENT HOURLY OBSERVATIONS ACROSS
MUCH OF THE UPPER MISSISSIPPI VALLEY
NATIONAL WEATHER SERVICE LA CROSSE WI
1100 AM CDT WED APR 26 2017


...SOUTHEAST MINNESOTA...


CITY           SKY/WX    TMP DP  RH WIND       PRES   REMARKS
ROCHESTER      LGT RAIN  39  39 100 NW18      29.45R WCI  30
ROCHESTER/MAYO CLOUDY    38  38 100 NW13G20   29.46R WCI  30
WINONA         LGT RAIN  43  41  93 NW9       29.44R
AUSTIN         CLOUDY    39  37  93 NW20      29.49R FOG     WCI  30
ALBERT LEA     CLOUDY    37  37 100 NW13G21   29.51R WCI  29
DODGE CENTER   CLOUDY    37  36  93 NW15G21   29.48R WCI  28
PRESTON        CLOUDY    42  40  95 NW12G20   29.45R FOG
OWATONNA       DRIZZLE   37  36  93 NW14      29.52R WCI  29
FARIBAULT      CLOUDY    37  36  93 NW9       29.52R WCI  31
$$

...ELSEWHERE IN MINNESOTA...


CITY           SKY/WX    TMP DP  RH WIND       PRES   REMARKS
MINNEAPOLIS    CLOUDY    37  33  85 N13       29.52R WCI  29
INTNL FALLS    LGT SNOW  25  19  78 NE20G26   29.76F VSB 3/4 WCI  11
DULUTH         LGT SNOW  32  30  92 NE15G23   29.57S FOG     WCI  22
RED WING       DRIZZLE   39  36  87 NW7       29.48R WCI  34
REDWOOD FALLS  CLOUDY    37  32  82 N13G22    29.59S WCI  29
MANKATO        CLOUDY    37  34  89 N17G23    29.55R WCI  27
WORTHINGTON    CLOUDY    35  33  92 NW21G26   29.60R WCI  24
FAIRMONT       CLOUDY    38  35  89 N18       29.56R WCI  28
$$

...SOUTHWEST WISCONSIN...


CITY           SKY/WX    TMP DP  RH WIND       PRES   REMARKS
LA CROSSE      CLOUDY    55  53  93 NW14      29.37R
PRAIRIE DU CHI CLOUDY    56  54  92 SW7       29.41R
BOSCOBEL       LGT RAIN  61  58  90 SW8       29.40R
LONE ROCK      LGT RAIN  61  57  88 SW8       29.39S FOG
PLATTEVILLE    PTSUNNY   59  59 100 SW12      29.42R
FORT MC COY    RAIN      56  56 100 CALM      29.37R
MAUSTON-NEW LI RAIN      60  58  93 S6        29.37R
VIROQUA        CLOUDY    58  57  97 SW7       29.39R
WIS DELLS      LGT RAIN  59  56  90 SW8       29.37S
$$

...ELSEWHERE IN WISCONSIN...


CITY           SKY/WX    TMP DP  RH WIND       PRES   REMARKS
MILWAUKEE      TSTM      63  59  87 SW10G18   29.42R FOG
MADISON        LGT RAIN  59  57  93 SW6       29.40R FOG
GREEN BAY      CLOUDY    64  58  80 S10       29.39S
EAU CLAIRE     LGT RAIN  39  38  96 N7        29.41S WCI  34
BLACK RVR FLS  LGT RAIN  55  55 100 W7        29.36S
MEDFORD        RAIN      49  49  98 N6        29.37S
WAUSAU         LGT RAIN  54  53  97 E7        29.34F FOG
WIS RAPIDS     LGT RAIN  59  58  96 S7        29.38R FOG
MARSHFIELD     LGT RAIN  56  54  93 E5        29.35S FOG
RICE LAKE      LGT RAIN  36  34  94 N13       29.47R WCI  27
$$

...NORTHEAST IOWA...


CITY           SKY/WX    TMP DP  RH WIND       PRES   REMARKS
WATERLOO       CLOUDY    47  44  90 W15       29.48R
DUBUQUE        CLOUDY    53  52  96 W21       29.45R
DECORAH        FOG       54  52  94 W7G14     29.41R VSB 1/2
MASON CITY     CLOUDY    41  39  93 NW23G30   29.50R FOG
CHARLES CITY   CLOUDY    45  45 100 NW16G24   29.47R
OELWEIN        CLOUDY    48  48 100 W17       29.45S
$$

...ELSEWHERE IN IOWA...


CITY           SKY/WX    TMP DP  RH WIND       PRES   REMARKS
DES MOINES     CLOUDY    45  39  79 NW21      29.56F
IOWA CITY      CLOUDY    50  45  83 W16       29.51S
FORT DODGE     CLOUDY    41  36  81 NW12G20   29.57S
MARSHALLTOWN   CLOUDY    44  42  93 W20       29.53R
CEDAR RAPIDS   CLOUDY    47  47 100 W16       29.49R FOG
$$

...NORTHERN ILLINOIS...


CITY           SKY/WX    TMP DP  RH WIND       PRES   REMARKS
CHICAGO-OHARE  CLOUDY    70  56  61 SW17G25   29.43R
CHICAGO-MIDWAY CLOUDY    73  57  57 SW23G30   29.44R
MOLINE         CLOUDY    58  53  84 W18       29.47R
ROCKFORD       CLOUDY    62  59  90 SW9       29.45S
PEORIA         PTSUNNY   67  60  78 SW12      29.50R
$$

NOTE: "FAIR" INDICATES FEW OR NO CLOUDS BELOW 12,000 FEET WITH NO
SIGNIFICANT WEATHER AND/OR OBSTRUCTIONS TO VISIBILITY. WIND
SPEEDS ARE IN MILES-PER-HOUR.




USA.gov is the U.S. government's official web portal to all federal, state and local government web resources and services.